Time,TemperatureF,DewpointF,PressureIn,WindDirection,WindDirectionDegrees,WindSpeedMPH,WindSpeedGustMPH,Humidity,HourlyPrecipIn,Conditions,Clouds,dailyrainin,SoftwareType,DateUTC
2013-03-02 00:02:00,37.0,26.0,29.74,NNW,339,14.0,21.0,64,0.00,,,0.00,,2013-03-02 05:02:00,
2013-03-02 00:12:00,37.0,26.0,29.74,NNW,339,14.0,21.0,64,0.00,,,0.00,,2013-03-02 05:12:00,
2013-03-02 00:22:00,37.0,26.0,29.74,NNW,342,11.0,20.0,63,0.00,,,0.00,,2013-03-02 05:22:00,
2013-03-02 00:32:00,37.0,26.0,29.74,NNW,342,11.0,20.0,63,0.00,,,0.00,,2013-03-02 05:32:00,
2013-03-02 00:42:00,37.0,26.0,29.74,NNW,342,11.0,20.0,63,0.00,,,0.00,,2013-03-02 05:42:00,
2013-03-02 00:52:00,37.0,25.0,29.74,NNW,329,10.0,22.0,62,0.00,,,0.00,,2013-03-02 05:52:00,
2013-03-02 01:02:00,36.0,24.0,29.74,North,358,8.0,17.0,62,0.00,,,0.00,,2013-03-02 06:02:00,
2013-03-02 01:11:00,36.0,24.0,29.74,North,358,8.0,17.0,62,0.00,,,0.00,,2013-03-02 06:11:00,
2013-03-02 01:22:00,36.0,25.0,29.74,NNW,327,8.0,16.0,63,0.00,,,0.00,,2013-03-02 06:22:00,
2013-03-02 01:32:00,36.0,25.0,29.74,North,353,5.0,12.0,64,0.00,,,0.00,,2013-03-02 06:32:00,
2013-03-02 01:42:00,36.0,25.0,29.74,North,353,5.0,12.0,64,0.00,,,0.00,,2013-03-02 06:42:00,
2013-03-02 01:52:00,36.0,26.0,29.74,NNW,332,9.0,16.0,66,0.00,,,0.00,,2013-03-02 06:52:00,
2013-03-02 02:01:00,36.0,26.0,29.74,NW,324,6.0,14.0,66,0.00,,,0.00,,2013-03-02 07:01:00,
2013-03-02 02:11:00,36.0,26.0,29.74,NW,324,6.0,14.0,66,0.00,,,0.00,,2013-03-02 07:11:00,
2013-03-02 02:21:00,35.0,24.0,29.76,NNW,344,11.0,16.0,64,0.00,,,0.00,,2013-03-02 07:21:00,
2013-03-02 02:32:00,35.0,24.0,29.76,NNW,341,7.0,15.0,64,0.00,,,0.00,,2013-03-02 07:32:00,
2013-03-02 02:42:00,35.0,24.0,29.76,NNW,341,7.0,15.0,64,0.00,,,0.00,,2013-03-02 07:42:00,
2013-03-02 02:52:00,35.0,24.0,29.76,North,352,10.0,16.0,63,0.00,,,0.00,,2013-03-02 07:52:00,
2013-03-02 03:01:00,35.0,24.0,29.76,NNW,328,12.0,17.0,64,0.00,,,0.00,,2013-03-02 08:01:00,
2013-03-02 03:11:00,35.0,24.0,29.76,NNW,328,12.0,17.0,64,0.00,,,0.00,,2013-03-02 08:11:00,
2013-03-02 03:22:00,35.0,25.0,29.75,NW,320,7.0,16.0,66,0.00,,,0.00,,2013-03-02 08:22:00,
2013-03-02 03:32:00,34.0,24.0,29.75,NNW,330,10.0,20.0,66,0.00,,,0.00,,2013-03-02 08:32:00,
2013-03-02 03:42:00,34.0,24.0,29.75,NNW,330,10.0,20.0,66,0.00,,,0.00,,2013-03-02 08:42:00,
2013-03-02 03:52:00,34.0,24.0,29.75,NW,321,12.0,15.0,66,0.00,,,0.00,,2013-03-02 08:52:00,
2013-03-02 04:02:00,34.0,24.0,29.75,NNW,338,11.0,16.0,66,0.00,,,0.00,,2013-03-02 09:02:00,
2013-03-02 04:11:00,34.0,24.0,29.75,NNW,338,11.0,16.0,66,0.00,,,0.00,,2013-03-02 09:11:00,
2013-03-02 04:22:00,34.0,24.0,29.77,NNW,334,10.0,18.0,66,0.00,,,0.00,,2013-03-02 09:22:00,
2013-03-02 04:32:00,34.0,24.0,29.77,NW,325,7.0,16.0,66,0.00,,,0.00,,2013-03-02 09:32:00,
2013-03-02 04:42:00,34.0,24.0,29.77,NW,325,7.0,16.0,66,0.00,,,0.00,,2013-03-02 09:42:00,
2013-03-02 04:52:00,34.0,24.0,29.77,NW,323,8.0,14.0,66,0.00,,,0.00,,2013-03-02 09:52:00,
2013-03-02 05:01:00,34.0,24.0,29.77,NNW,331,8.0,14.0,67,0.00,,,0.00,,2013-03-02 10:01:00,
2013-03-02 05:16:00,34.0,24.0,29.77,NNW,331,8.0,14.0,67,0.00,,,0.00,,2013-03-02 10:16:00,
2013-03-02 05:22:00,34.0,24.0,29.77,NW,321,12.0,16.0,67,0.00,,,0.00,,2013-03-02 10:22:00,
2013-03-02 05:32:00,34.0,24.0,29.77,NNW,328,8.0,14.0,67,0.00,,,0.00,,2013-03-02 10:32:00,
2013-03-02 05:43:00,34.0,24.0,29.77,NNW,328,8.0,14.0,67,0.00,,,0.00,,2013-03-02 10:43:00,
2013-03-02 05:52:00,34.0,25.0,29.75,NW,318,7.0,14.0,68,0.00,,,0.00,,2013-03-02 10:52:00,
2013-03-02 06:01:00,34.0,25.0,29.75,NNW,329,10.0,17.0,68,0.00,,,0.00,,2013-03-02 11:01:00,
2013-03-02 06:11:00,34.0,25.0,29.75,NNW,329,10.0,17.0,68,0.00,,,0.00,,2013-03-02 11:11:00,
2013-03-02 06:22:00,34.0,24.0,29.75,NNW,333,9.0,16.0,67,0.00,,,0.00,,2013-03-02 11:22:00,
2013-03-02 06:32:00,34.0,24.0,29.76,NNW,331,9.0,16.0,67,0.00,,,0.00,,2013-03-02 11:32:00,
2013-03-02 06:42:00,34.0,24.0,29.76,NNW,331,9.0,16.0,67,0.00,,,0.00,,2013-03-02 11:42:00,
2013-03-02 06:52:00,34.0,25.0,29.76,NNW,330,10.0,17.0,68,0.00,,,0.00,,2013-03-02 11:52:00,
2013-03-02 07:02:00,34.0,24.0,29.76,NNW,329,11.0,18.0,67,0.00,,,0.00,,2013-03-02 12:02:00,
2013-03-02 07:11:00,34.0,24.0,29.76,NNW,329,11.0,18.0,67,0.00,,,0.00,,2013-03-02 12:11:00,
2013-03-02 07:22:00,34.0,24.0,29.76,NW,319,10.0,14.0,67,0.00,,,0.00,,2013-03-02 12:22:00,
2013-03-02 07:33:00,34.0,25.0,29.76,NNW,336,7.0,13.0,68,0.00,,,0.00,,2013-03-02 12:33:00,
2013-03-02 07:43:00,34.0,25.0,29.76,NNW,336,7.0,13.0,68,0.00,,,0.00,,2013-03-02 12:43:00,
2013-03-02 07:53:00,34.0,24.0,29.76,NNW,333,8.0,14.0,67,0.00,,,0.00,,2013-03-02 12:53:00,
2013-03-02 08:01:00,34.0,24.0,29.76,NW,325,7.0,17.0,67,0.00,,,0.00,,2013-03-02 13:01:00,
2013-03-02 08:11:00,34.0,24.0,29.76,NW,325,7.0,17.0,67,0.00,,,0.00,,2013-03-02 13:11:00,
2013-03-02 08:22:00,34.0,24.0,29.76,NNW,333,7.0,14.0,66,0.00,,,0.00,,2013-03-02 13:22:00,
2013-03-02 08:32:00,34.0,24.0,29.76,NNW,330,8.0,13.0,66,0.00,,,0.00,,2013-03-02 13:32:00,
2013-03-02 08:42:00,34.0,24.0,29.76,NNW,330,8.0,13.0,66,0.00,,,0.00,,2013-03-02 13:42:00,
2013-03-02 08:52:00,34.0,24.0,29.76,NNW,330,9.0,18.0,66,0.00,,,0.00,,2013-03-02 13:52:00,
2013-03-02 09:01:00,34.0,23.0,29.76,NNW,333,10.0,16.0,65,0.00,,,0.00,,2013-03-02 14:01:00,
2013-03-02 09:11:00,34.0,23.0,29.76,NNW,333,10.0,16.0,65,0.00,,,0.00,,2013-03-02 14:11:00,
2013-03-02 09:22:00,34.0,23.0,29.76,NNW,327,10.0,15.0,65,0.00,,,0.00,,2013-03-02 14:22:00,
2013-03-02 09:32:00,35.0,24.0,29.76,NNW,337,9.0,20.0,63,0.00,,,0.00,,2013-03-02 14:32:00,
2013-03-02 09:42:00,35.0,24.0,29.76,NNW,337,9.0,20.0,63,0.00,,,0.00,,2013-03-02 14:42:00,
2013-03-02 09:52:00,35.0,23.0,29.76,NNW,333,7.0,17.0,62,0.00,,,0.00,,2013-03-02 14:52:00,
2013-03-02 10:02:00,36.0,24.0,29.76,NNW,342,7.0,14.0,61,0.00,,,0.00,,2013-03-02 15:02:00,
2013-03-02 10:11:00,36.0,24.0,29.76,NNW,342,7.0,14.0,61,0.00,,,0.00,,2013-03-02 15:11:00,
2013-03-02 10:22:00,36.0,24.0,29.76,NNW,336,12.0,18.0,61,0.00,,,0.00,,2013-03-02 15:22:00,
2013-03-02 10:32:00,36.0,23.0,29.76,North,1,7.0,12.0,60,0.00,,,0.00,,2013-03-02 15:32:00,
2013-03-02 10:42:00,36.0,23.0,29.76,North,1,7.0,12.0,60,0.00,,,0.00,,2013-03-02 15:42:00,
2013-03-02 10:52:00,37.0,24.0,29.76,NW,323,9.0,14.0,59,0.00,,,0.00,,2013-03-02 15:52:00,
2013-03-02 11:02:00,37.0,24.0,29.76,NNE,19,6.0,12.0,59,0.00,,,0.00,,2013-03-02 16:02:00,
2013-03-02 11:11:00,37.0,24.0,29.76,NNE,19,6.0,12.0,59,0.00,,,0.00,,2013-03-02 16:11:00,
2013-03-02 11:21:00,37.0,24.0,29.76,NNW,332,5.0,14.0,58,0.00,,,0.00,,2013-03-02 16:21:00,
2013-03-02 11:32:00,37.0,24.0,29.76,NNW,332,5.0,14.0,58,0.00,,,0.00,,2013-03-02 16:32:00,
2013-03-02 11:42:00,37.0,24.0,29.76,NNW,332,5.0,14.0,58,0.00,,,0.00,,2013-03-02 16:42:00,
2013-03-02 11:52:00,38.0,24.0,29.73,NW,325,9.0,14.0,57,0.00,,,0.00,,2013-03-02 16:52:00,
2013-03-02 12:01:00,38.0,24.0,29.73,NNW,330,7.0,12.0,57,0.00,,,0.00,,2013-03-02 17:01:00,
2013-03-02 12:12:00,38.0,24.0,29.73,NNW,330,7.0,12.0,57,0.00,,,0.00,,2013-03-02 17:12:00,
2013-03-02 12:22:00,38.0,25.0,29.73,North,350,5.0,12.0,58,0.00,,,0.00,,2013-03-02 17:22:00,
2013-03-02 12:32:00,38.0,25.0,29.73,NNW,331,7.0,13.0,58,0.00,,,0.00,,2013-03-02 17:32:00,
2013-03-02 12:42:00,38.0,25.0,29.73,NNW,331,7.0,13.0,58,0.00,,,0.00,,2013-03-02 17:42:00,
2013-03-02 12:52:00,38.0,25.0,29.73,NW,317,6.0,13.0,59,0.00,,,0.00,,2013-03-02 17:52:00,
2013-03-02 13:02:00,38.0,25.0,29.73,North,352,7.0,13.0,59,0.00,,,0.00,,2013-03-02 18:02:00,
2013-03-02 13:11:00,38.0,25.0,29.73,North,352,7.0,13.0,59,0.00,,,0.00,,2013-03-02 18:11:00,
2013-03-02 13:22:00,38.0,25.0,29.71,North,0,7.0,14.0,59,0.00,,,0.00,,2013-03-02 18:22:00,
2013-03-02 13:32:00,38.0,25.0,29.71,NW,326,12.0,16.0,59,0.00,,,0.00,,2013-03-02 18:32:00,
2013-03-02 13:42:00,38.0,25.0,29.71,NW,326,12.0,16.0,59,0.00,,,0.00,,2013-03-02 18:42:00,
2013-03-02 13:52:00,38.0,25.0,29.71,NW,324,7.0,14.0,60,0.00,,,0.00,,2013-03-02 18:52:00,
2013-03-02 14:01:00,38.0,25.0,29.71,NNW,329,8.0,14.0,59,0.00,,,0.00,,2013-03-02 19:01:00,
2013-03-02 14:12:00,38.0,25.0,29.71,NNW,329,8.0,14.0,59,0.00,,,0.00,,2013-03-02 19:12:00,
2013-03-02 14:22:00,38.0,26.0,29.71,NW,319,10.0,13.0,61,0.00,,,0.00,,2013-03-02 19:22:00,
2013-03-02 14:32:00,38.0,26.0,29.71,NNW,348,7.0,14.0,61,0.00,,,0.00,,2013-03-02 19:32:00,
2013-03-02 14:42:00,38.0,26.0,29.71,NNW,348,7.0,14.0,61,0.00,,,0.00,,2013-03-02 19:42:00,
2013-03-02 14:52:00,37.0,25.0,29.71,NNW,343,8.0,14.0,61,0.00,,,0.00,,2013-03-02 19:52:00,
2013-03-02 15:01:00,37.0,25.0,29.71,NNW,327,9.0,17.0,61,0.00,,,0.00,,2013-03-02 20:01:00,
2013-03-02 15:11:00,37.0,25.0,29.71,NNW,327,9.0,17.0,61,0.00,,,0.00,,2013-03-02 20:11:00,
2013-03-02 15:22:00,38.0,26.0,29.71,NNW,334,5.0,14.0,62,0.00,,,0.00,,2013-03-02 20:22:00,
2013-03-02 15:32:00,38.0,26.0,29.71,NW,312,9.0,16.0,62,0.00,,,0.00,,2013-03-02 20:32:00,
2013-03-02 15:42:00,38.0,26.0,29.71,NW,312,9.0,16.0,62,0.00,,,0.00,,2013-03-02 20:42:00,
2013-03-02 15:53:00,38.0,26.0,29.71,NW,315,6.0,17.0,62,0.00,,,0.00,,2013-03-02 20:53:00,
2013-03-02 16:02:00,37.0,25.0,29.71,NW,318,9.0,16.0,62,0.00,,,0.00,,2013-03-02 21:02:00,
2013-03-02 16:12:00,37.0,25.0,29.71,NW,318,9.0,16.0,62,0.00,,,0.00,,2013-03-02 21:12:00,
2013-03-02 16:22:00,37.0,25.0,29.71,NW,317,13.0,20.0,62,0.00,,,0.00,,2013-03-02 21:22:00,
2013-03-02 16:32:00,37.0,25.0,29.71,NW,306,10.0,20.0,62,0.00,,,0.00,,2013-03-02 21:32:00,
2013-03-02 16:42:00,37.0,25.0,29.71,NW,306,10.0,20.0,62,0.00,,,0.00,,2013-03-02 21:42:00,
2013-03-02 16:52:00,38.0,26.0,29.71,NW,325,9.0,13.0,61,0.00,,,0.00,,2013-03-02 21:52:00,
2013-03-02 17:02:00,38.0,25.0,29.71,NW,321,9.0,15.0,60,0.00,,,0.00,,2013-03-02 22:02:00,
2013-03-02 17:11:00,38.0,25.0,29.71,NW,321,9.0,15.0,60,0.00,,,0.00,,2013-03-02 22:11:00,
2013-03-02 17:22:00,38.0,25.0,29.69,NNW,328,8.0,16.0,60,0.00,,,0.00,,2013-03-02 22:22:00,
2013-03-02 17:32:00,37.0,24.0,29.69,NNW,332,8.0,17.0,60,0.00,,,0.00,,2013-03-02 22:32:00,
2013-03-02 17:42:00,37.0,24.0,29.69,NNW,332,8.0,17.0,60,0.00,,,0.00,,2013-03-02 22:42:00,
2013-03-02 17:52:00,37.0,25.0,29.70,NW,324,10.0,16.0,61,0.00,,,0.00,,2013-03-02 22:52:00,
2013-03-02 18:01:00,37.0,25.0,29.70,NNW,333,12.0,18.0,61,0.00,,,0.00,,2013-03-02 23:01:00,
2013-03-02 18:11:00,37.0,25.0,29.70,NNW,337,6.0,15.0,62,0.00,,,0.00,,2013-03-02 23:11:00,
2013-03-02 18:22:00,37.0,25.0,29.70,NNW,337,6.0,15.0,62,0.00,,,0.00,,2013-03-02 23:22:00,
2013-03-02 18:32:00,37.0,25.0,29.70,NNW,343,9.0,17.0,62,0.00,,,0.00,,2013-03-02 23:32:00,
2013-03-02 18:42:00,37.0,25.0,29.70,NNW,343,9.0,17.0,62,0.00,,,0.00,,2013-03-02 23:42:00,
2013-03-02 18:52:00,37.0,25.0,29.70,NW,316,8.0,14.0,62,0.00,,,0.00,,2013-03-02 23:52:00,
2013-03-02 19:02:00,36.0,24.0,29.70,NW,325,12.0,18.0,62,0.00,,,0.00,,2013-03-03 00:02:00,
2013-03-02 19:11:00,36.0,24.0,29.70,NW,325,12.0,18.0,62,0.00,,,0.00,,2013-03-03 00:11:00,
2013-03-02 19:22:00,36.0,25.0,29.70,NNW,336,10.0,18.0,65,0.00,,,0.00,,2013-03-03 00:22:00,
2013-03-02 19:32:00,35.0,26.0,29.70,NW,316,7.0,16.0,69,0.00,,,0.00,,2013-03-03 00:32:00,
2013-03-02 19:42:00,35.0,26.0,29.70,NW,316,7.0,16.0,69,0.00,,,0.00,,2013-03-03 00:42:00,
2013-03-02 19:52:00,35.0,27.0,29.70,NNW,327,12.0,18.0,71,0.00,,,0.00,,2013-03-03 00:52:00,
2013-03-02 20:01:00,35.0,27.0,29.70,NW,325,9.0,16.0,72,0.00,,,0.00,,2013-03-03 01:01:00,
2013-03-02 20:11:00,35.0,27.0,29.70,NW,325,9.0,16.0,72,0.00,,,0.00,,2013-03-03 01:11:00,
2013-03-02 20:21:00,34.0,26.0,29.73,North,350,8.0,16.0,73,0.00,,,0.00,,2013-03-03 01:21:00,
2013-03-02 20:32:00,34.0,27.0,29.73,NNW,341,9.0,16.0,76,0.00,,,0.00,,2013-03-03 01:32:00,
2013-03-02 20:42:00,34.0,27.0,29.73,NNW,341,9.0,16.0,76,0.00,,,0.00,,2013-03-03 01:42:00,
2013-03-02 20:52:00,32.0,27.0,29.74,NNW,331,12.0,18.0,82,0.00,,,0.00,,2013-03-03 01:52:00,
2013-03-02 21:01:00,32.0,28.0,29.74,NNW,330,8.0,20.0,84,0.00,,,0.00,,2013-03-03 02:01:00,
2013-03-02 21:11:00,32.0,28.0,29.74,NNW,330,8.0,20.0,84,0.00,,,0.00,,2013-03-03 02:11:00,
2013-03-02 21:21:00,32.0,28.0,29.74,NW,326,12.0,16.0,84,0.00,,,0.00,,2013-03-03 02:21:00,
2013-03-02 21:32:00,31.0,27.0,29.74,NNW,329,8.0,17.0,85,0.00,,,0.00,,2013-03-03 02:32:00,
2013-03-02 21:42:00,31.0,27.0,29.74,NNW,329,8.0,17.0,85,0.00,,,0.00,,2013-03-03 02:42:00,
2013-03-02 21:52:00,32.0,28.0,29.74,NNW,339,9.0,15.0,85,0.00,,,0.00,,2013-03-03 02:52:00,
2013-03-02 22:01:00,32.0,28.0,29.74,NNW,331,9.0,16.0,84,0.00,,,0.00,,2013-03-03 03:01:00,
2013-03-02 22:11:00,32.0,28.0,29.74,NNW,331,9.0,16.0,84,0.00,,,0.00,,2013-03-03 03:11:00,
2013-03-02 22:22:00,31.0,26.0,29.74,NW,321,9.0,15.0,82,0.00,,,0.00,,2013-03-03 03:22:00,
2013-03-02 22:32:00,31.0,26.0,29.74,North,355,10.0,16.0,82,0.00,,,0.00,,2013-03-03 03:32:00,
2013-03-02 22:42:00,31.0,26.0,29.74,North,355,10.0,16.0,82,0.00,,,0.00,,2013-03-03 03:42:00,
2013-03-02 22:52:00,31.0,26.0,29.73,NNW,327,10.0,16.0,82,0.00,,,0.00,,2013-03-03 03:52:00,
2013-03-02 23:01:00,31.0,26.0,29.73,NNW,327,11.0,15.0,82,0.00,,,0.00,,2013-03-03 04:01:00,
2013-03-02 23:11:00,31.0,26.0,29.73,NNW,327,11.0,15.0,82,0.00,,,0.00,,2013-03-03 04:11:00,
2013-03-02 23:21:00,31.0,26.0,29.73,North,359,9.0,16.0,80,0.00,,,0.00,,2013-03-03 04:21:00,
2013-03-02 23:32:00,31.0,26.0,29.73,NNW,346,5.0,14.0,80,0.00,,,0.00,,2013-03-03 04:32:00,
2013-03-02 23:42:00,31.0,26.0,29.73,NNW,346,5.0,14.0,80,0.00,,,0.00,,2013-03-03 04:42:00,
2013-03-02 23:52:00,31.0,25.0,29.73,NNW,329,10.0,14.0,78,0.00,,,0.00,,2013-03-03 04:52:00,